Location: Melara
(45.0500°N, 11.1833°E)
Time: 01:42:11
(UTC+00:00)

Meteor 1-24 Rocket - Pass Details

Date: 26 May 2022
Orbit: 789 x 928 km, 81.3° (Epoch: 26 June)

Event Time Altitude Azimuth Distance (km) Brightness Sun altitude
Exits shadow 00:35:02 31° 155° (SSE) 1,445 4.5 -21.2°
Maximum altitude 00:37:27 53° 95° (E) 1,026 4.2 -21.1°
Drops below altitude 10° 00:42:46 10° 20° (NNE) 2,422 7.3 -20.7°
Sets 00:45:10 0° 16° (NNE) 3,342 8.4 -20.6°
